Flag for Brazil Weather past 2 weeks in Manaus, Amazonas, Brazil

Now
77 °F

Clear.


Feels Like: 78 °F
Forecast: 76 / 88 °F
Wind: No wind

Location: Manaus Aeroporto

Current Time: Jan 30, 2015 at 5:58:27 AM

Latest Report: Jan 30, 2015 at 5:00 AM


Visibility: 10 mi

Pressure: 29.83 "Hg

Humidity: 83%

Dew point: 72 °F

Location of ManausLocation

Historic Weather in Manaus — Graph

°F

Manaus temperature yesterday

Maximum temperature yesterday: 88 °F (at 1:00 PM)
Minimum temperature yesterday: 75 °F (at 4:00 AM)
Average temperature yesterday: 80 °F

Past Weeks' High & Low Weather Summary

 TemperatureHumidityPressure
High90 °F (Jan 16, 2:00 PM)100% (Jan 23, 11:00 AM)30.01 "Hg (Jan 23, 11:00 AM)
Low37 °F (Jan 23, 11:00 AM)55% (Jan 18, 3:00 PM)29.74 "Hg (Jan 29, 4:00 PM)
Average77 °F83%29.88 "Hg
* Reported Jan 15 5:00 AM — Jan 30 5:00 AM, Manaus, Weather by CustomWeather, © 2014

Note: Actual official high and low records may vary slightly from our data, if they occured in-between our weather recording intervals... More about our weather records

Advertising

Manaus weather history for previous 24 hours

 ConditionsComfort  
Time TempWeatherWind HumidityBarometerVisibility
5:00 AM
Jan 30
77 °FClear.No wind83%29.83 "Hg10 mi
4:00 AM77 °FClear.No wind89%29.80 "Hg10 mi
3:00 AM77 °FClear.No wind89%29.80 "Hg10 mi
2:00 AM77 °FClear.No wind89%29.83 "HgN/A
1:00 AM77 °FClear.No wind89%29.86 "Hg10 mi
12:00 AM79 °FPassing clouds.5 mph79%29.86 "HgN/A
11:00 PM
Jan 29
77 °FPassing clouds.3 mph94%29.86 "HgN/A
10:00 PM79 °FPassing clouds.5 mph89%29.86 "HgN/A
9:00 PM77 °FLight rain. Partly cloudy.5 mph89%29.86 "Hg5 mi
8:10 PM77 °FRain. Partly cloudy.6 mph83%29.83 "Hg3 mi
8:00 PM81 °FPassing clouds.7 mph74%29.83 "HgN/A
7:00 PM81 °FClear.2 mph74%29.80 "Hg10 mi
6:00 PM82 °FPartly sunny.2 mph84%29.77 "HgN/A
5:00 PM84 °FBroken clouds.2 mph79%29.77 "HgN/A
4:00 PM84 °FBroken clouds.2 mph74%29.74 "HgN/A
3:00 PM84 °FBroken clouds.5 mph70%29.77 "HgN/A
2:00 PM86 °FScattered showers. Scattered clouds.6 mph66%29.80 "HgN/A
1:00 PM88 °FScattered clouds.8 mph62%29.83 "HgN/A
12:00 PM86 °FScattered clouds.7 mph66%29.86 "HgN/A
11:00 AM84 °FScattered clouds.6 mph74%29.89 "HgN/A
10:00 AM84 °FScattered clouds.3 mph70%29.92 "HgN/A
9:00 AM82 °FSunny.3 mph74%29.92 "Hg10 mi
8:00 AM81 °FSunny.5 mph79%29.89 "Hg10 mi
7:00 AM77 °FPassing clouds.2 mph89%29.89 "HgN/A
6:00 AM75 °FPassing clouds.2 mph94%29.86 "HgN/A
5:00 AM75 °FPassing clouds.2 mph94%29.83 "HgN/A
Weather by CustomWeather, © 2014

See weather overviewHow to use our weather pages